Tracking 22130 objects as of 21-Jan-2021
HD Live streaming from Space Station
objects crossing your sky now

YAOGAN-33

Track YAOGAN-33 now!
10-day predictions


NORAD ID: 47302
Int'l Code: 2020-103A
Perigee: 702.3 km
Apogee: 704.0 km
Inclination: 98.3 °
Period: 98.7 minutes
Semi major axis: 7074 km
RCS: Unknown
Launch date: December 27, 2020
Source: People's Republic of China (PRC)
Launch site: Jiuquan Satellite Launch Center, China (JSC)
aabbcc
Your satellite tracking list
Your tracking list is empty




NASA's NSSDC Master Catalog

Two Line Element Set (TLE):
1 47302U 20103A   21021.24659247  .00000089  00000-0  28802-4 0  9998
2 47302  98.2699 271.0954 0001240 101.8337 258.2995 14.59119795  3597
Source of the keplerian elements: AFSPC